Simultaneous Nadir Overpasses (SNOs) Predictions

Prediction of SNOs near equator between AQUA and NPP Satellite Orbit:

Table of predicted SNOs near equator for the next 14.0 days since TLE Epoch: 1/1/2022
Index Date (AQUA) Time (AQUA) AQUA Lat,Lon Date (NPP) Time (NPP) NPP Lat,Lon Distance(km) Time Diff (sec)
1 01/03/2022 16:25:59 3.73, -42.98 01/03/2022 16:16:40 3.63, -43.34 41.28 559
2 01/03/2022 17:14:06 0.81, 125.64 01/03/2022 17:06:03 0.92, 125.01 71.58 483
3 01/06/2022 08:00:12 -29.95,-100.75 01/06/2022 07:50:12 -30.04,-101.24 47.97 600
4 01/06/2022 08:42:06 2.43, 73.18 01/06/2022 08:33:09 2.36, 72.73 50.95 537
5 01/06/2022 09:30:13 2.11,-118.20 01/06/2022 09:22:31 2.25,-118.91 81.05 462
6 01/09/2022 00:09:59 -5.72, 20.74 01/09/2022 00:00:07 -5.64, 20.48 30.23 592
7 01/09/2022 00:58:14 1.14,-170.66 01/09/2022 00:49:38 1.04,-171.20 60.55 516
8 01/09/2022 01:46:21 3.40, -2.04 01/09/2022 01:39:00 3.57, -2.83 90.55 441
9 01/11/2022 16:26:06 -4.39, 136.91 01/11/2022 16:16:36 -4.32, 136.56 39.88 570
10 01/11/2022 17:14:22 -0.13, -54.50 01/11/2022 17:06:07 -0.28, -55.12 70.35 495
11 01/14/2022 08:42:13 -3.07,-106.92 01/14/2022 08:33:05 -3.01,-107.36 49.84 548
12 01/14/2022 09:30:29 -1.44, 61.66 01/14/2022 09:22:36 -1.60, 60.96 80.14 473
